Waarnemingen

Advertentie
Mijn weer
Nordkoster, Zweden (2500): temperatuur & dauwpunt: 28.07.2020 14:00:00 - 03.08.2020 14:00:00 (CEST)Nordkoster, Zweden (2500): windsnelheid & windstoten: 28.07.2020 14:00:00 - 03.08.2020 14:00:00 (CEST)Nordkoster, Zweden (2500): windrichting: 28.07.2020 14:00:00 - 03.08.2020 14:00:00 (CEST)Nordkoster, Zweden (2500): luchtdruk: 28.07.2020 14:00:00 - 03.08.2020 14:00:00 (CEST)Nordkoster, Zweden (2500): zicht: 28.07.2020 14:00:00 - 03.08.2020 14:00:00 (CEST)Nordkoster, Zweden (2500): neerslag: 28.07.2020 14:00:00 - 03.08.2020 14:00:00 (CEST)
Datum & Tijd tt [°C] td [°C] ff [km/u] ff [kn] fx [km/u] fx [kn] dd ppp [hPa] vv [km] rr [mm]
03.08.2020 14:00:00 18,5 11,1 21 12 37 20 WZW 1007,6 33 0,0
03.08.2020 13:00:00 17,8 10,7 23 13 33 18 WZW 1007,7 37 0,0
03.08.2020 12:00:00 17,5 10,1 22 12 34 18 WZW 1007,5 33 0,0
03.08.2020 11:00:00 17,0 9,9 24 13 35 19 W 1007,1 35 0,0
03.08.2020 10:00:00 16,6 9,8 23 12 35 19 W 1007,0 35 0,0
03.08.2020 09:00:00 16,2 9,6 23 13 36 19 W 1006,7 32 0,0
03.08.2020 08:00:00 15,8 9,5 22 12 37 20 W 1006,3 45 0,0
03.08.2020 07:00:00 15,4 8,6 22 12 37 20 W 1006,1 41 0,0
03.08.2020 06:00:00 15,1 8,6 27 14 40 22 W 1005,6 50 0,0
03.08.2020 05:00:00 15,0 9,4 27 15 38 21 W 1005,3 43 0,0
03.08.2020 04:00:00 15,2 10,8 26 14 38 21 WZW 1005,1 38 0,0
03.08.2020 03:00:00 15,4 11,2 24 13 42 23 WZW 1005,1 26 0,0
03.08.2020 02:00:00 15,6 11,8 29 15 45 25 WZW 1005,1 19 0,0
03.08.2020 01:00:00 15,8 12,2 32 17 48 26 WZW 1005,1 16 0,0
03.08.2020 00:00:00 15,9 13,4 27 15 48 26 ZW 1005,0 12 0,0
02.08.2020 23:00:00 15,9 13,6 32 18 48 26 ZZW 1005,1 10 0,0
02.08.2020 22:00:00 15,8 13,3 35 19 51 27 ZZW 1005,5 10 0,0
02.08.2020 21:00:00 15,7 13,2 35 19 49 26 ZZW 1005,5 10 0,0
02.08.2020 20:00:00 16,1 12,8 32 17 45 24 ZZW 1005,8 12 0,0
02.08.2020 19:00:00 16,6 12,7 26 14 42 23 ZW 1006,1 13 0,0
02.08.2020 18:00:00 17,1 13,6 27 14 42 23 ZW 1006,4 13 0,0
02.08.2020 17:00:00 16,8 14,4 29 16 41 22 ZW 1006,4 14 0,0
02.08.2020 16:00:00 16,5 15,2 28 15 39 21 ZW 1006,5 16 0,0
02.08.2020 15:00:00 16,6 15,5 26 14 37 20 Z 1006,7 18 0,0
02.08.2020 14:00:00 15,8 15,2 25 14 36 19 Z 1007,0 9 0,0
02.08.2020 13:00:00 16,2 14,9 27 15 34 19 ZZW 1007,1 31 0,0
02.08.2020 12:00:00 15,6 15,0 27 14 36 19 ZZW 1007,3 6 0,0
02.08.2020 11:00:00 15,8 15,3 24 13 32 17 ZZW 1007,3 12 0,0
02.08.2020 10:00:00 16,0 15,8 21 12 32 17 ZZW 1007,3 2,8 0,0
02.08.2020 09:00:00 16,9 16,1 23 12 40 22 ZZW 1007,3 8 0,2
02.08.2020 08:00:00 17,8 15,2 29 15 40 22 Z 1007,5 20 0,0
02.08.2020 07:00:00 17,7 13,2 17 9 26 14 ZO 1008,1 50 0,0
02.08.2020 06:00:00 17,8 12,9 16 9 24 13 ZO 1008,5 50 0,0
02.08.2020 05:00:00 17,8 12,7 19 10 25 13 ZO 1009,1 50 0,0
02.08.2020 04:00:00 18,1 12,3 18 10 26 14 ZO 1009,6 50 0,0
02.08.2020 03:00:00 18,0 12,4 15 8 27 14 ZO 1010,3 50 0,0
02.08.2020 02:00:00 18,4 11,7 19 10 24 13 ZO 1011,1 50 0,0
02.08.2020 01:00:00 - - - - 18 10 - - - -
02.08.2020 00:00:00 18,0 12,2 14 7 19 10 ZO 1012,2 50 0,0
01.08.2020 23:00:00 18,3 12,7 11 6 16 8 ZO 1012,6 50 0,0
01.08.2020 22:00:00 - - - - 13 7 - - - -
01.08.2020 21:00:00 - - - - 11 6 - - - -
01.08.2020 20:00:00 - - - - - - - - - -
01.08.2020 19:00:00 - - - - - - - - - -
01.08.2020 18:00:00 20,3 14,0 8 4 16 9 ZZW 1015,4 44 0,0
01.08.2020 17:00:00 20,7 13,9 13 7 19 10 ZZW 1015,7 34 0,0
01.08.2020 16:00:00 - - - - 23 12 - - - -
01.08.2020 15:00:00 - - - - 24 13 - - - -
01.08.2020 14:00:00 - - - - - - - - - -
01.08.2020 13:00:00 - - - - - - - - - -
01.08.2020 12:00:00 - - - - - - - - - -
01.08.2020 11:00:00 - - - - - - - - - -
01.08.2020 10:00:00 - - - - - - - - - -
01.08.2020 09:00:00 - - - - - - - - - -
01.08.2020 08:00:00 17,6 13,5 5 3 10 6 O 1017,7 50 0,0
01.08.2020 07:00:00 15,1 13,6 8 4 11 6 OZO 1018,1 50 0,0
01.08.2020 06:00:00 15,5 14,0 6 3 9 5 OZO 1018,3 50 0,0
01.08.2020 05:00:00 15,2 14,2 6 4 8 5 O 1018,3 48 0,0
01.08.2020 04:00:00 15,5 14,7 4 2 8 4 OZO 1018,5 49 0,0
01.08.2020 03:00:00 15,5 14,6 5 3 8 5 O 1018,6 47 0,0
01.08.2020 02:00:00 15,9 15,3 4 2 6 3 OZO 1018,8 31 0,0
01.08.2020 01:00:00 16,2 15,2 4 2 8 4 O 1018,8 48 0,0
01.08.2020 00:00:00 16,5 15,2 5 3 7 4 Z 1018,9 47 0,0
31.07.2020 23:00:00 17,2 14,7 3 2 12 7 ZW 1019,0 50 0,0
31.07.2020 22:00:00 17,6 14,7 8 4 15 8 WZW 1018,7 50 0,0
31.07.2020 21:00:00 18,3 14,8 8 4 18 10 W 1018,3 50 0,0
31.07.2020 20:00:00 19,6 14,6 12 6 21 11 W 1018,3 50 0,0
31.07.2020 19:00:00 20,0 14,6 16 9 24 13 W 1018,3 49 0,0
31.07.2020 18:00:00 20,7 15,3 17 9 24 13 W 1018,2 50 0,0
31.07.2020 17:00:00 21,4 13,3 14 8 20 11 WNW 1018,0 36 0,0
31.07.2020 16:00:00 21,5 14,6 12 7 21 12 WNW 1018,0 41 0,0
31.07.2020 15:00:00 20,9 15,0 14 8 23 12 WNW 1018,1 36 0,0
31.07.2020 14:00:00 21,2 14,8 13 7 22 12 WNW 1018,0 34 0,0
31.07.2020 13:00:00 20,9 15,0 15 8 23 12 NW 1017,8 44 0,0
31.07.2020 12:00:00 20,9 13,1 14 8 23 12 NW 1017,8 43 0,0
31.07.2020 11:00:00 19,4 11,9 14 8 24 13 N 1017,7 47 0,0
31.07.2020 10:00:00 18,6 11,9 17 9 29 15 N 1017,3 46 0,0
31.07.2020 09:00:00 17,9 12,4 16 9 27 15 NNO 1016,8 45 0,0
31.07.2020 08:00:00 17,4 11,9 18 10 26 14 NNO 1016,5 45 0,0
31.07.2020 07:00:00 16,7 11,8 17 9 24 13 N 1015,8 50 0,0
31.07.2020 06:00:00 16,3 12,5 11 6 22 12 N 1015,0 47 0,0
31.07.2020 05:00:00 16,8 11,7 16 9 24 13 N 1014,4 50 0,0
31.07.2020 04:00:00 16,4 12,0 13 7 23 13 N 1014,1 49 0,0
31.07.2020 03:00:00 17,0 12,1 16 9 23 12 N 1013,4 44 0,0
31.07.2020 02:00:00 17,0 14,1 10 6 24 13 N 1012,8 35 0,0
31.07.2020 01:00:00 - - - - 23 13 - - - -
31.07.2020 00:00:00 - - - - 26 14 - - - -
30.07.2020 23:00:00 18,2 13,7 19 10 26 14 W 1010,7 31 0,0
30.07.2020 22:00:00 18,0 13,9 18 10 28 15 W 1010,2 27 0,0
30.07.2020 21:00:00 - - - - 26 14 - - - -
30.07.2020 20:00:00 - - - - 33 18 - - - -
30.07.2020 19:00:00 - - - - - - - - - -
30.07.2020 18:00:00 18,5 15,0 22 12 35 19 WZW 1009,4 12 0,0
30.07.2020 17:00:00 18,2 14,1 19 10 34 18 WZW 1009,4 14 0,0
30.07.2020 16:00:00 18,7 14,4 23 12 39 21 WZW 1009,4 16 0,0
30.07.2020 15:00:00 18,1 13,8 21 11 35 19 WZW 1009,4 20 0,0
30.07.2020 14:00:00 19,3 13,7 18 10 34 18 WZW 1009,5 27 0,0
30.07.2020 13:00:00 18,8 13,4 18 10 30 16 WZW 1009,4 27 0,0
30.07.2020 12:00:00 17,6 12,7 21 11 32 17 W 1009,1 23 0,0
30.07.2020 11:00:00 17,2 12,3 22 12 35 19 W 1008,7 24 0,0
30.07.2020 10:00:00 17,1 11,1 19 11 32 17 W 1008,2 42 0,0
30.07.2020 09:00:00 16,6 10,7 23 12 35 19 W 1007,6 44 0,0
30.07.2020 08:00:00 16,2 10,9 23 13 37 20 W 1006,9 43 0,0
30.07.2020 07:00:00 15,8 10,1 26 14 38 20 W 1006,3 35 0,0
30.07.2020 06:00:00 15,7 10,9 25 14 36 20 W 1005,7 36 0,0
30.07.2020 05:00:00 15,6 11,4 27 15 39 21 W 1005,3 35 0,0
30.07.2020 04:00:00 15,7 11,7 26 14 37 20 W 1004,8 33 0,0
30.07.2020 03:00:00 15,9 11,7 26 14 40 21 W 1004,5 30 0,0
30.07.2020 02:00:00 15,9 12,6 27 15 42 23 W 1003,9 15 0,0
30.07.2020 01:00:00 16,0 13,3 31 17 46 25 W 1003,3 12 0,0
30.07.2020 00:00:00 16,1 12,6 35 19 50 27 W 1003,0 14 0,0
29.07.2020 23:00:00 16,1 12,8 33 18 47 26 WZW 1002,8 15 0,0
29.07.2020 22:00:00 16,3 13,2 32 17 50 27 WZW 1002,6 13 0,0
29.07.2020 21:00:00 16,8 13,1 26 14 39 21 WZW 1002,1 15 0,0
29.07.2020 20:00:00 17,5 12,8 10 6 16 9 W 1002,2 24 0,0
29.07.2020 19:00:00 17,2 13,1 10 6 26 14 WZW 1002,1 32 0,0
29.07.2020 18:00:00 17,3 13,2 18 10 39 21 W 1001,6 30 0,0
29.07.2020 17:00:00 16,9 13,0 30 16 47 25 W 1000,8 29 0,0
29.07.2020 16:00:00 16,2 13,5 31 17 44 24 W 999,7 14 0,0
29.07.2020 15:00:00 17,2 14,1 13 7 34 18 WZW 998,8 13 0,0
29.07.2020 14:00:00 16,1 13,9 27 15 56 31 ZZW 998,6 9 0,2
29.07.2020 13:00:00 14,2 13,6 36 20 57 31 Z 998,8 3,6 0,6
29.07.2020 12:00:00 15,1 13,1 44 24 55 30 Z 999,2 14 0,0
29.07.2020 11:00:00 13,6 12,8 38 21 56 30 ZZW 999,6 5 0,1
29.07.2020 10:00:00 14,0 12,2 39 21 54 29 ZZW 999,6 10 0,1
29.07.2020 09:00:00 13,2 12,7 41 22 59 32 ZZW 999,6 4,4 1,3
29.07.2020 08:00:00 13,6 12,3 40 22 53 29 ZZW 999,6 10 0,6
29.07.2020 07:00:00 13,6 12,0 40 21 58 31 ZZW 999,7 11 0,0
29.07.2020 06:00:00 13,7 11,7 38 20 53 29 ZZW 1000,0 7 0,1
29.07.2020 05:00:00 13,5 12,2 39 21 52 28 ZZW 1000,1 12 0,3
29.07.2020 04:00:00 12,9 12,3 39 21 60 32 ZZW 1000,6 4,5 0,2
29.07.2020 03:00:00 13,1 11,7 38 20 60 32 ZZW 1001,0 9 0,3
29.07.2020 02:00:00 13,9 11,1 41 22 54 29 ZZW 1001,0 14 0,0
29.07.2020 01:00:00 13,8 10,8 33 18 51 28 ZZW 1001,6 13 0,1
29.07.2020 00:00:00 13,4 10,8 27 15 51 28 ZW 1001,8 18 0,1
28.07.2020 23:00:00 12,7 11,3 33 18 55 30 ZW 1002,1 6 0,3
28.07.2020 22:00:00 14,6 11,6 31 17 47 26 ZW 1002,1 10 0,0
28.07.2020 21:00:00 15,0 11,8 29 16 46 25 ZW 1002,0 12 0,0
28.07.2020 20:00:00 15,4 12,0 29 16 46 25 ZW 1002,0 13 0,0
28.07.2020 19:00:00 15,8 12,0 30 16 46 25 ZW 1002,0 17 0,0
28.07.2020 18:00:00 16,0 12,2 32 17 48 26 ZZW 1001,7 19 0,0
28.07.2020 17:00:00 16,4 12,6 33 18 46 25 ZW 1001,6 23 0,0
28.07.2020 16:00:00 16,7 13,2 25 13 39 21 ZW 1001,2 19 0,0
28.07.2020 15:00:00 15,6 14,5 21 11 28 15 ZZW 1000,9 10 0,2
28.07.2020 14:00:00 14,6 13,6 19 10 30 16 ZZW 1000,7 9 2,0

tt = temperatuur
td = dauwpunt
ff = windsnelheid
fx = windstoten
dd = windrichting
ppp = luchtdruk
vv = zicht
rr = neerslag

Weerstations in de omgeving